Regional Weather Roundup
Issued by NWS

Home | Current Version | Previous Version | Graphics & Text | Print | Product List | Glossary On
Versions: 1 2 3 4 5 6 7 8 9 10 11 12 13 14 15 16 17 18 19 20 21 22 23 24 25 26 27 28 29 30 31 32 33 34 35 36 37 38 39 40 41 42 43 44 45 46 47 48 49 50
866
ASUS43 KFSD 220310
RWRSD

WEATHER ROUNDUP FOR SOUTH DAKOTA
NATIONAL WEATHER SERVICE SIOUX FALLS SD
1000 PM CDT MON MAY 21 2018

NOTE: "FAIR" INDICATES FEW OR NO CLOUDS BELOW 12,000 FEET WITH NO
SIGNIFICANT WEATHER AND/OR OBSTRUCTIONS TO VISIBILITY.


SDZ001>005-009-010-012>017-220400-
NORTHWEST AND NORTH CENTRAL SOUTH DAKOTA

CITY           SKY/WX    TMP DP  RH WIND       PRES   REMARKS
BUFFALO          N/A     63  50  62 SE12      29.85
FAITH            N/A     59  50  72 E9        29.92R
MOBRIDGE       CLEAR     57  50  77 CALM      29.90R
$$

SDZ012>016-024>037-041>051-057-063-072>074-220400-
SOUTHWEST AND SOUTH CENTRAL SOUTH DAKOTA

CITY           SKY/WX    TMP DP  RH WIND       PRES   REMARKS
RAPID CTY ARPT PTCLDY    61  52  72 E6        29.90S
PIERRE         CLEAR     64  51  62 E8        29.89S
CUSTER         CLOUDY    57  47  69 CALM      30.03R
ELLSWORTH AFB  MOCLDY    68  53  58 CALM      29.91R
PHILIP         CLEAR     61  55  81 E9        29.88R
PINE RIDGE     MOCLDY    64  54  69 E7        29.93R
SPEARFISH      FAIR      63  54  72 SE8       29.93F
WINNER         FAIR      63  54  72 SE9       29.92S
$$

SDZ004>011-016>023-039-040-220400-
NORTHEAST SOUTH DAKOTA

CITY           SKY/WX    TMP DP  RH WIND       PRES   REMARKS
ABERDEEN       CLEAR     61  55  81 SE7       29.95R
WATERTOWN      CLOUDY    60  57  89 E5        29.97S
BROOKINGS      CLEAR     59  56  89 SE6       29.99R
SISSETON         N/A     62  57  83 SE6       29.97R
$$

SDZ017-020-022-023-036>040-048>070-220400-
SOUTHEAST SOUTH DAKOTA

CITY           SKY/WX    TMP DP  RH WIND       PRES   REMARKS
SIOUX FALLS    CLEAR     56  55  97 E5        29.98R
HURON          CLEAR     61  56  83 SE6       29.95R
CHAMBERLAIN    CLEAR     64  56  73 SE5       29.93R
MITCHELL       CLEAR     61  57  87 SE7       29.95R
YANKTON        CLEAR     63  58  83 E6        29.97R
$$

ABBREVIATIONS USED IN REMARKS
   TC - TEMPERATURE IN CELSIUS
  WCI - WIND CHILL INDEX
   HX - HEAT INDEX
  VSB - VISIBILITY





USA.gov is the U.S. government's official web portal to all federal, state and local government web resources and services.